Climatologie pour Saint-Brevin les Pins
Jour • Résumé pour juin 30, 2017 Système :  Métrique    Anglais   Mixte
« - 1 jour
+ 1 jour »
Jour Semaine Mois Année Personnalisé
  Maximum : Minimum : Moyenne :
Température sous abri : 18.1 °C 14.3 °C 15.3 °C
Point de rosée : 13.5 °C 11.8 °C 12.6 °C
Humidité : 91 % 71 % 84 %
Vitesse du vent : 25.7 km/h 0.0 km/h 10.6 km/h
Rafale : 35.4 km/h - -
Direction :- - WNW
Pression : 1014.4 hPa 1001.6 hPa -
Précipitations : 0.5 mm    
Historical Graphs
 
 
Tableau de données pour juin 30, 2017
Heure Tempé Pt rosée Pression Vent Vitesse Rafale Humidité Taux pluie (/hr) Soleil
00:00 15.2 °C 12.9 °C 1001.6 hPa WNW 19.3 km/h 25.7 km/h 86 % 0.0 mm 0 W/m2
00:10 15.3 °C 12.9 °C 1001.6 hPa NW 11.3 km/h 19.3 km/h 86 % 0.0 mm 0 W/m2
00:15 15.3 °C 12.9 °C 1001.6 hPa West 9.7 km/h 17.7 km/h 86 % 0.0 mm 0 W/m2
00:20 15.3 °C 12.9 °C 1001.6 hPa West 12.9 km/h 19.3 km/h 86 % 0.0 mm 0 W/m2
00:25 15.2 °C 13.0 °C 1001.6 hPa West 14.5 km/h 19.3 km/h 87 % 0.0 mm 0 W/m2
00:30 15.1 °C 13.0 °C 1001.6 hPa NNW 9.7 km/h 19.3 km/h 87 % 0.0 mm 0 W/m2
00:40 15.1 °C 12.9 °C 1001.6 hPa WNW 6.4 km/h 22.5 km/h 87 % 0.0 mm 0 W/m2
00:45 15.1 °C 12.9 °C 1001.6 hPa WNW 8.0 km/h 19.3 km/h 87 % 0.0 mm 0 W/m2
00:50 15.0 °C 12.9 °C 1001.6 hPa WNW 8.0 km/h 16.1 km/h 87 % 0.0 mm 0 W/m2
00:55 14.9 °C 12.8 °C 1001.6 hPa North 11.3 km/h 16.1 km/h 87 % 0.0 mm 0 W/m2
01:00 14.9 °C 12.8 °C 1001.9 hPa NW 4.8 km/h 16.1 km/h 87 % 0.0 mm 0 W/m2
01:10 15.0 °C 12.9 °C 1001.9 hPa NW 9.7 km/h 17.7 km/h 87 % 0.0 mm 0 W/m2
01:15 15.1 °C 12.9 °C 1001.9 hPa NW 4.8 km/h 12.9 km/h 87 % 0.0 mm 0 W/m2
01:25 15.1 °C 12.9 °C 1001.9 hPa NW 8.0 km/h 17.7 km/h 87 % 0.0 mm 0 W/m2
01:30 15.1 °C 12.7 °C 1001.9 hPa NNW 9.7 km/h 19.3 km/h 86 % 0.0 mm 0 W/m2
01:35 15.1 °C 12.7 °C 1001.9 hPa NW 4.8 km/h 20.9 km/h 86 % 0.0 mm 0 W/m2
01:40 15.0 °C 12.7 °C 1001.9 hPa West 4.8 km/h 20.9 km/h 86 % 0.0 mm 0 W/m2
01:45 15.1 °C 12.9 °C 1001.9 hPa WNW 11.3 km/h 17.7 km/h 87 % 0.0 mm 0 W/m2
01:50 15.1 °C 12.9 °C 1001.9 hPa NW 6.4 km/h 14.5 km/h 87 % 0.0 mm 0 W/m2
01:55 15.1 °C 13.0 °C 1001.9 hPa NW 4.8 km/h 14.5 km/h 87 % 0.0 mm 0 W/m2
02:00 15.1 °C 13.0 °C 1001.9 hPa WNW 8.0 km/h 16.1 km/h 87 % 0.0 mm 0 W/m2
02:10 15.1 °C 12.9 °C 1002.3 hPa WNW 1.6 km/h 20.9 km/h 87 % 0.0 mm 0 W/m2
02:15 15.1 °C 12.9 °C 1002.3 hPa NW 4.8 km/h 19.3 km/h 87 % 0.0 mm 0 W/m2
02:20 15.0 °C 12.9 °C 1002.3 hPa NW 1.6 km/h 17.7 km/h 87 % 0.0 mm 0 W/m2
02:25 14.8 °C 12.9 °C 1002.3 hPa NNW 14.5 km/h 19.3 km/h 88 % 0.0 mm 0 W/m2
02:30 14.7 °C 12.9 °C 1002.3 hPa NNW 8.0 km/h 19.3 km/h 89 % 0.0 mm 0 W/m2
02:35 14.5 °C 12.9 °C 1002.3 hPa WNW 11.3 km/h 19.3 km/h 90 % 0.0 mm 0 W/m2
02:40 14.3 °C 12.9 °C 1002.3 hPa WNW 8.0 km/h 16.1 km/h 91 % 0.0 mm 0 W/m2
02:45 14.3 °C 12.9 °C 1002.3 hPa NNW 12.9 km/h 22.5 km/h 91 % 0.0 mm 0 W/m2
02:55 14.3 °C 12.7 °C 1002.3 hPa NW 4.8 km/h 17.7 km/h 90 % 0.0 mm 0 W/m2
03:00 14.3 °C 12.7 °C 1002.6 hPa NW 8.0 km/h 17.7 km/h 90 % 0.0 mm 0 W/m2
03:05 14.3 °C 12.5 °C 1002.6 hPa West 4.8 km/h 19.3 km/h 89 % 0.0 mm 0 W/m2
03:10 14.4 °C 12.4 °C 1002.3 hPa NW 6.4 km/h 19.3 km/h 88 % 0.0 mm 0 W/m2
03:15 14.4 °C 12.5 °C 1002.6 hPa WNW 16.1 km/h 22.5 km/h 88 % 0.0 mm 0 W/m2
03:20 14.5 °C 12.4 °C 1002.6 hPa NW 8.0 km/h 22.5 km/h 87 % 0.0 mm 0 W/m2
03:25 14.5 °C 12.4 °C 1002.6 hPa WNW 9.7 km/h 19.3 km/h 87 % 0.0 mm 0 W/m2
03:30 14.4 °C 12.3 °C 1002.6 hPa WNW 14.5 km/h 22.5 km/h 87 % 0.0 mm 0 W/m2
03:35 14.4 °C 12.1 °C 1002.6 hPa WNW 6.4 km/h 22.5 km/h 86 % 0.0 mm 0 W/m2
03:40 14.4 °C 12.1 °C 1002.6 hPa WNW 6.4 km/h 17.7 km/h 86 % 0.0 mm 0 W/m2
03:45 14.4 °C 12.1 °C 1002.6 hPa NW 12.9 km/h 17.7 km/h 86 % 0.0 mm 0 W/m2
03:50 14.3 °C 12.0 °C 1002.6 hPa NNW 4.8 km/h 19.3 km/h 86 % 0.0 mm 0 W/m2
03:55 14.4 °C 12.1 °C 1002.6 hPa WNW 14.5 km/h 19.3 km/h 86 % 0.0 mm 0 W/m2
04:00 14.3 °C 11.8 °C 1002.6 hPa WNW 12.9 km/h 24.1 km/h 85 % 0.0 mm 0 W/m2
04:05 14.3 °C 11.8 °C 1002.6 hPa Calm   24.1 km/h 85 % 0.0 mm 0 W/m2
04:10 14.4 °C 12.1 °C 1002.9 hPa West 6.4 km/h 24.1 km/h 86 % 0.0 mm 0 W/m2
04:15 14.4 °C 11.9 °C 1002.9 hPa WNW 6.4 km/h 24.1 km/h 85 % 0.0 mm 0 W/m2
04:25 14.4 °C 12.0 °C 1002.9 hPa NNW 4.8 km/h 24.1 km/h 85 % 0.0 mm 0 W/m2
04:30 14.4 °C 12.0 °C 1002.9 hPa West 11.3 km/h 20.9 km/h 85 % 0.0 mm 0 W/m2
04:35 14.5 °C 12.0 °C 1002.9 hPa NW 9.7 km/h 19.3 km/h 85 % 0.0 mm 0 W/m2
04:40 14.6 °C 12.1 °C 1002.9 hPa WNW 8.0 km/h 17.7 km/h 85 % 0.0 mm 0 W/m2
04:45 14.6 °C 12.1 °C 1002.9 hPa WNW 19.3 km/h 27.4 km/h 85 % 0.0 mm 0 W/m2
04:50 14.7 °C 12.2 °C 1002.9 hPa WNW 19.3 km/h 27.4 km/h 85 % 0.0 mm 0 W/m2
04:55 14.7 °C 12.2 °C 1002.9 hPa NNW 12.9 km/h 20.9 km/h 85 % 0.0 mm 0 W/m2
05:00 14.7 °C 12.2 °C 1002.9 hPa WNW 4.8 km/h 20.9 km/h 85 % 0.0 mm 0 W/m2
05:10 14.7 °C 12.2 °C 1002.9 hPa NW 6.4 km/h 24.1 km/h 85 % 0.0 mm 0 W/m2
05:20 14.6 °C 12.1 °C 1002.9 hPa NW 6.4 km/h 24.1 km/h 85 % 0.0 mm 0 W/m2
05:25 14.6 °C 12.2 °C 1002.9 hPa NW 9.7 km/h 24.1 km/h 86 % 0.0 mm 0 W/m2
05:30 14.5 °C 12.2 °C 1002.9 hPa NW 11.3 km/h 29.0 km/h 86 % 0.0 mm 0 W/m2
05:35 14.4 °C 12.1 °C 1003.3 hPa NW 8.0 km/h 29.0 km/h 86 % 0.0 mm 0 W/m2
05:40 14.4 °C 12.1 °C 1003.3 hPa WNW 4.8 km/h 25.7 km/h 86 % 0.0 mm 0 W/m2
05:45 14.3 °C 12.0 °C 1003.3 hPa NW 4.8 km/h 25.7 km/h 86 % 0.0 mm 0 W/m2
05:55 14.3 °C 12.1 °C 1003.6 hPa NW 9.7 km/h 25.7 km/h 87 % 0.0 mm 0 W/m2
06:00 14.3 °C 12.1 °C 1003.6 hPa NW 8.0 km/h 25.7 km/h 87 % 0.0 mm 0 W/m2
06:05 14.3 °C 12.2 °C 1003.6 hPa WNW 12.9 km/h 25.7 km/h 87 % 0.0 mm 0 W/m2
06:10 14.3 °C 12.0 °C 1003.6 hPa WNW 6.4 km/h 25.7 km/h 86 % 0.0 mm 0 W/m2
06:15 14.3 °C 12.0 °C 1003.6 hPa West 9.7 km/h 22.5 km/h 86 % 0.0 mm 0 W/m2
06:20 14.3 °C 12.0 °C 1003.6 hPa NW 11.3 km/h 29.0 km/h 86 % 0.0 mm 0 W/m2
06:25 14.3 °C 12.0 °C 1003.6 hPa WNW 9.7 km/h 29.0 km/h 86 % 0.0 mm 0 W/m2
06:30 14.3 °C 12.0 °C 1003.9 hPa NW 11.3 km/h 25.7 km/h 86 % 0.0 mm 0 W/m2
06:40 14.4 °C 12.1 °C 1003.9 hPa NW 9.7 km/h 24.1 km/h 86 % 0.0 mm 0 W/m2
06:45 14.4 °C 12.0 °C 1003.9 hPa NW 11.3 km/h 27.4 km/h 85 % 0.0 mm 5 W/m2
06:50 14.4 °C 12.0 °C 1003.9 hPa NNW 12.9 km/h 27.4 km/h 85 % 0.0 mm 7 W/m2
06:55 14.4 °C 12.0 °C 1003.9 hPa NW 9.7 km/h 24.1 km/h 85 % 0.0 mm 11 W/m2
07:00 14.4 °C 12.0 °C 1003.9 hPa WNW 12.9 km/h 30.6 km/h 85 % 0.0 mm 14 W/m2
07:05 14.5 °C 12.0 °C 1004.3 hPa WNW 12.9 km/h 30.6 km/h 85 % 0.0 mm 14 W/m2
07:10 14.5 °C 12.0 °C 1004.3 hPa WNW 8.0 km/h 22.5 km/h 85 % 0.0 mm 21 W/m2
07:15 14.6 °C 12.1 °C 1004.3 hPa NNW 8.0 km/h 22.5 km/h 85 % 0.0 mm 32 W/m2
07:25 14.6 °C 12.1 °C 1004.3 hPa NW 12.9 km/h 19.3 km/h 85 % 0.0 mm 58 W/m2
07:30 14.6 °C 12.2 °C 1004.3 hPa NW 8.0 km/h 24.1 km/h 86 % 0.0 mm 67 W/m2
07:35 14.6 °C 12.4 °C 1004.6 hPa WNW 9.7 km/h 24.1 km/h 87 % 0.0 mm 72 W/m2
07:40 14.4 °C 12.3 °C 1004.6 hPa North 9.7 km/h 24.1 km/h 87 % 0.0 mm 84 W/m2
07:45 14.5 °C 12.4 °C 1004.6 hPa North 8.0 km/h 25.7 km/h 87 % 0.0 mm 90 W/m2
07:50 14.6 °C 12.4 °C 1004.6 hPa WNW 6.4 km/h 25.7 km/h 87 % 0.0 mm 76 W/m2
07:55 14.6 °C 12.4 °C 1004.6 hPa North 6.4 km/h 20.9 km/h 87 % 0.0 mm 62 W/m2
08:00 14.5 °C 12.2 °C 1004.6 hPa West 4.8 km/h 24.1 km/h 86 % 0.0 mm 63 W/m2
08:10 14.5 °C 12.2 °C 1005.0 hPa NW 19.3 km/h 25.7 km/h 86 % 0.0 mm 60 W/m2
08:15 14.6 °C 12.2 °C 1005.0 hPa NW 17.7 km/h 25.7 km/h 86 % 0.0 mm 58 W/m2
08:20 14.6 °C 12.2 °C 1005.0 hPa WNW 8.0 km/h 27.4 km/h 86 % 0.0 mm 47 W/m2
08:25 14.6 °C 12.1 °C 1005.3 hPa NW 9.7 km/h 27.4 km/h 85 % 0.0 mm 53 W/m2
08:30 14.6 °C 12.1 °C 1005.3 hPa WNW 11.3 km/h 25.7 km/h 85 % 0.0 mm 67 W/m2
08:35 14.7 °C 12.2 °C 1005.3 hPa NNW 12.9 km/h 33.8 km/h 85 % 0.0 mm 95 W/m2
08:40 14.7 °C 12.0 °C 1005.3 hPa WNW 8.0 km/h 33.8 km/h 84 % 0.0 mm 102 W/m2
08:45 14.8 °C 12.1 °C 1005.6 hPa West 12.9 km/h 24.1 km/h 84 % 0.0 mm 135 W/m2
08:55 15.2 °C 12.5 °C 1005.6 hPa WNW 9.7 km/h 22.5 km/h 84 % 0.0 mm 264 W/m2
09:00 15.4 °C 12.4 °C 1005.6 hPa NW 16.1 km/h 27.4 km/h 82 % 0.0 mm 236 W/m2
09:05 15.6 °C 12.5 °C 1005.6 hPa WNW 17.7 km/h 27.4 km/h 82 % 0.0 mm 206 W/m2
09:10 15.5 °C 12.4 °C 1005.6 hPa WNW 12.9 km/h 27.4 km/h 82 % 0.0 mm 195 W/m2
09:15 15.6 °C 12.3 °C 1006.0 hPa WNW 14.5 km/h 27.4 km/h 81 % 0.0 mm 186 W/m2
09:20 15.5 °C 12.1 °C 1006.0 hPa West 12.9 km/h 30.6 km/h 80 % 0.0 mm 156 W/m2
09:25 15.5 °C 12.1 °C 1006.0 hPa North 11.3 km/h 30.6 km/h 80 % 0.0 mm 163 W/m2
09:30 15.6 °C 12.5 °C 1006.0 hPa WNW 16.1 km/h 25.7 km/h 82 % 0.0 mm 174 W/m2
09:40 15.7 °C 12.2 °C 1006.3 hPa WNW 22.5 km/h 22.5 km/h 80 % 0.0 mm 179 W/m2
09:45 15.6 °C 12.4 °C 1006.3 hPa NW 16.1 km/h 27.4 km/h 81 % 0.0 mm 183 W/m2
09:50 15.6 °C 12.1 °C 1006.3 hPa WNW 8.0 km/h 29.0 km/h 80 % 0.0 mm 190 W/m2
09:55 15.5 °C 11.9 °C 1006.3 hPa WNW 3.2 km/h 29.0 km/h 79 % 0.0 mm 197 W/m2
10:00 15.7 °C 12.3 °C 1006.7 hPa WNW 9.7 km/h 29.0 km/h 80 % 0.0 mm 232 W/m2
10:05 15.8 °C 12.4 °C 1006.7 hPa WSW 6.4 km/h 25.7 km/h 80 % 0.0 mm 236 W/m2
10:10 15.9 °C 12.3 °C 1006.7 hPa NW 12.9 km/h 32.2 km/h 79 % 0.0 mm 204 W/m2
10:15 15.8 °C 12.0 °C 1006.7 hPa WNW 11.3 km/h 32.2 km/h 78 % 0.0 mm 190 W/m2
10:25 15.7 °C 11.9 °C 1006.7 hPa WNW 8.0 km/h 30.6 km/h 78 % 0.0 mm 165 W/m2
10:30 15.7 °C 12.3 °C 1006.7 hPa WNW 17.7 km/h 30.6 km/h 80 % 0.0 mm 160 W/m2
10:35 15.7 °C 12.0 °C 1007.0 hPa NNW 16.1 km/h 30.6 km/h 79 % 0.0 mm 163 W/m2
10:40 15.7 °C 12.2 °C 1007.0 hPa NNW 16.1 km/h 24.1 km/h 80 % 0.0 mm 213 W/m2
10:45 15.7 °C 12.2 °C 1007.0 hPa WNW 12.9 km/h 24.1 km/h 80 % 0.0 mm 183 W/m2
10:50 15.7 °C 12.2 °C 1007.0 hPa WNW 9.7 km/h 29.0 km/h 80 % 0.0 mm 172 W/m2
10:55 15.7 °C 12.2 °C 1007.0 hPa WNW 8.0 km/h 29.0 km/h 80 % 0.0 mm 188 W/m2
11:00 15.9 °C 12.4 °C 1007.0 hPa WNW 22.5 km/h 29.0 km/h 80 % 0.0 mm 204 W/m2
11:10 16.1 °C 12.4 °C 1007.0 hPa NW 17.7 km/h 29.0 km/h 79 % 0.0 mm 295 W/m2
11:15 16.2 °C 12.5 °C 1007.3 hPa NW 9.7 km/h 29.0 km/h 79 % 0.0 mm 216 W/m2
11:20 16.0 °C 12.2 °C 1007.3 hPa NW 8.0 km/h 29.0 km/h 78 % 0.0 mm 223 W/m2
11:25 15.9 °C 12.4 °C 1007.3 hPa WNW 12.9 km/h 29.0 km/h 80 % 0.0 mm 230 W/m2
11:30 15.8 °C 12.5 °C 1007.3 hPa NW 4.8 km/h 30.6 km/h 81 % 0.0 mm 236 W/m2
11:35 15.8 °C 12.5 °C 1007.3 hPa WNW 16.1 km/h 30.6 km/h 81 % 0.0 mm 248 W/m2
11:40 15.8 °C 12.6 °C 1007.3 hPa NW 6.4 km/h 24.1 km/h 81 % 0.0 mm 260 W/m2
11:45 15.8 °C 12.4 °C 1007.3 hPa WNW 9.7 km/h 27.4 km/h 80 % 0.0 mm 216 W/m2
11:55 15.8 °C 12.4 °C 1007.7 hPa WNW 17.7 km/h 27.4 km/h 80 % 0.0 mm 218 W/m2
12:00 15.9 °C 12.4 °C 1007.7 hPa WNW 6.4 km/h 22.5 km/h 80 % 0.0 mm 199 W/m2
12:05 15.9 °C 12.2 °C 1007.3 hPa West 14.5 km/h 29.0 km/h 79 % 0.0 mm 283 W/m2
12:10 15.9 °C 12.5 °C 1007.7 hPa WNW 16.1 km/h 29.0 km/h 80 % 0.0 mm 186 W/m2
12:15 16.0 °C 12.5 °C 1007.7 hPa NW 20.9 km/h 27.4 km/h 80 % 0.0 mm 255 W/m2
12:20 16.3 °C 12.7 °C 1007.7 hPa NW 25.7 km/h 30.6 km/h 79 % 0.0 mm 304 W/m2
12:25 16.3 °C 12.5 °C 1007.7 hPa WSW 19.3 km/h 30.6 km/h 78 % 0.0 mm 279 W/m2
12:30 16.3 °C 12.3 °C 1007.7 hPa NW 9.7 km/h 29.0 km/h 77 % 0.0 mm 385 W/m2
12:40 17.8 °C 13.1 °C 1007.7 hPa NW 8.0 km/h 24.1 km/h 74 % 0.0 mm 519 W/m2
12:45 18.1 °C 13.2 °C 1007.7 hPa NW 22.5 km/h 27.4 km/h 73 % 0.0 mm 584 W/m2
12:50 17.8 °C 12.7 °C 1007.7 hPa WNW 22.5 km/h 27.4 km/h 72 % 0.0 mm 469 W/m2
12:55 17.8 °C 12.7 °C 1007.7 hPa WNW 12.9 km/h 27.4 km/h 72 % 0.0 mm 411 W/m2
13:00 17.6 °C 12.9 °C 1007.7 hPa NW 20.9 km/h 27.4 km/h 74 % 0.0 mm 309 W/m2
13:05 17.3 °C 12.4 °C 1007.7 hPa NW 12.9 km/h 24.1 km/h 73 % 0.0 mm 116 W/m2
13:10 16.8 °C 12.3 °C 1008.0 hPa WNW 8.0 km/h 30.6 km/h 75 % 0.0 mm 278 W/m2
13:15 17.2 °C 12.9 °C 1008.0 hPa WNW 25.7 km/h 30.6 km/h 76 % 0.0 mm 527 W/m2
13:25 17.3 °C 12.7 °C 1008.0 hPa NW 12.9 km/h 25.7 km/h 74 % 0.0 mm 381 W/m2
13:30 17.1 °C 12.6 °C 1008.0 hPa WNW 9.7 km/h 30.6 km/h 75 % 0.0 mm 220 W/m2
13:35 16.9 °C 12.5 °C 1008.0 hPa West 11.3 km/h 30.6 km/h 75 % 0.0 mm 283 W/m2
13:40 16.9 °C 12.6 °C 1008.0 hPa WNW 9.7 km/h 25.7 km/h 76 % 0.0 mm 142 W/m2
13:45 16.8 °C 12.7 °C 1008.0 hPa NW 16.1 km/h 27.4 km/h 77 % 0.0 mm 153 W/m2
13:50 16.5 °C 12.5 °C 1008.4 hPa WNW 19.3 km/h 27.4 km/h 77 % 0.0 mm 109 W/m2
13:55 16.2 °C 12.1 °C 1008.4 hPa WNW 12.9 km/h 33.8 km/h 77 % 0.0 mm 105 W/m2
14:00 15.8 °C 12.2 °C 1008.4 hPa West 16.1 km/h 33.8 km/h 79 % 0.0 mm 104 W/m2
14:05 15.6 °C 12.2 °C 1008.7 hPa WNW 17.7 km/h 32.2 km/h 80 % 0.0 mm 118 W/m2
14:10 15.4 °C 12.2 °C 1008.7 hPa NW 9.7 km/h 32.2 km/h 81 % 0.0 mm 183 W/m2
14:15 15.6 °C 12.4 °C 1008.7 hPa WNW 11.3 km/h 27.4 km/h 81 % 0.0 mm 292 W/m2
14:20 16.1 °C 12.8 °C 1008.7 hPa WSW 4.8 km/h 25.7 km/h 81 % 0.0 mm 272 W/m2
14:25 16.3 °C 12.8 °C 1008.7 hPa West 17.7 km/h 25.7 km/h 80 % 0.0 mm 229 W/m2
14:30 16.3 °C 12.9 °C 1008.7 hPa WNW 6.4 km/h 25.7 km/h 80 % 0.0 mm 241 W/m2
14:40 17.1 °C 13.0 °C 1008.7 hPa NW 11.3 km/h 30.6 km/h 77 % 0.0 mm 503 W/m2
14:45 17.6 °C 13.3 °C 1008.7 hPa WNW 9.7 km/h 24.1 km/h 76 % 0.0 mm 383 W/m2
14:55 17.7 °C 12.8 °C 1008.7 hPa NW 12.9 km/h 30.6 km/h 73 % 0.0 mm 385 W/m2
15:00 17.8 °C 12.5 °C 1008.7 hPa WNW 8.0 km/h 27.4 km/h 71 % 0.0 mm 350 W/m2
15:05 17.6 °C 12.5 °C 1009.0 hPa NW 12.9 km/h 27.4 km/h 72 % 0.0 mm 290 W/m2
15:10 17.3 °C 12.7 °C 1008.7 hPa WNW 14.5 km/h 29.0 km/h 74 % 0.0 mm 253 W/m2
15:15 17.1 °C 12.6 °C 1008.7 hPa WNW 8.0 km/h 30.6 km/h 75 % 0.0 mm 239 W/m2
15:20 17.2 °C 12.9 °C 1008.7 hPa NW 8.0 km/h 30.6 km/h 76 % 0.0 mm 239 W/m2
15:25 17.1 °C 13.0 °C 1009.0 hPa NW 16.1 km/h 27.4 km/h 77 % 0.0 mm 214 W/m2
15:30 16.9 °C 12.6 °C 1009.0 hPa NNW 12.9 km/h 27.4 km/h 76 % 0.0 mm 200 W/m2
15:40 16.5 °C 12.8 °C 1009.4 hPa WNW 14.5 km/h 35.4 km/h 79 % 0.0 mm 172 W/m2
15:45 16.2 °C 12.9 °C 1009.4 hPa NW 19.3 km/h 35.4 km/h 81 % 0.0 mm 128 W/m2
15:50 15.7 °C 12.8 °C 1009.4 hPa West 14.5 km/h 29.0 km/h 83 % 0.0 mm 74 W/m2
15:55 15.3 °C 12.9 °C 1009.4 hPa WNW 14.5 km/h 30.6 km/h 86 % 0.0 mm 102 W/m2
16:00 14.9 °C 12.8 °C 1009.4 hPa WNW 16.1 km/h 30.6 km/h 87 % 0.0 mm 134 W/m2
16:05 14.8 °C 12.8 °C 1009.7 hPa NNW 11.3 km/h 25.7 km/h 88 % 0.3 mm 172 W/m2
16:10 14.7 °C 12.9 °C 1009.7 hPa WNW 14.5 km/h 25.7 km/h 89 % 0.3 mm 213 W/m2
16:15 14.8 °C 13.0 °C 1009.7 hPa NW 4.8 km/h 29.0 km/h 89 % 0.3 mm 209 W/m2
16:25 15.0 °C 13.0 °C 1009.7 hPa WNW 14.5 km/h 20.9 km/h 88 % 0.3 mm 193 W/m2
16:30 15.1 °C 13.1 °C 1009.7 hPa WNW 11.3 km/h 29.0 km/h 88 % 0.3 mm 214 W/m2
16:35 15.2 °C 13.1 °C 1009.7 hPa NW 8.0 km/h 29.0 km/h 87 % 0.3 mm 262 W/m2
16:40 15.5 °C 13.3 °C 1009.7 hPa WNW 14.5 km/h 27.4 km/h 87 % 0.3 mm 301 W/m2
16:45 15.8 °C 13.3 °C 1009.7 hPa West 14.5 km/h 30.6 km/h 85 % 0.3 mm 334 W/m2
16:50 15.9 °C 13.4 °C 1009.7 hPa NW 17.7 km/h 30.6 km/h 85 % 0.3 mm 294 W/m2
16:55 16.0 °C 13.1 °C 1009.7 hPa WNW 20.9 km/h 29.0 km/h 83 % 0.3 mm 272 W/m2
17:00 16.1 °C 13.2 °C 1010.0 hPa WNW 14.5 km/h 29.0 km/h 83 % 0.3 mm 285 W/m2
17:10 16.4 °C 13.4 °C 1010.0 hPa WNW 16.1 km/h 27.4 km/h 82 % 0.0 mm 241 W/m2
17:15 16.5 °C 13.4 °C 1010.0 hPa WNW 11.3 km/h 27.4 km/h 82 % 0.0 mm 267 W/m2
17:20 16.6 °C 13.5 °C 1010.0 hPa NW 12.9 km/h 27.4 km/h 82 % 0.0 mm 216 W/m2
17:25 16.4 °C 13.1 °C 1010.0 hPa West 9.7 km/h 30.6 km/h 81 % 0.0 mm 88 W/m2
17:30 16.0 °C 12.9 °C 1010.0 hPa NW 11.3 km/h 30.6 km/h 82 % 0.0 mm 137 W/m2
17:35 16.0 °C 12.9 °C 1010.0 hPa NW 8.0 km/h 33.8 km/h 82 % 0.0 mm 239 W/m2
17:40 16.1 °C 13.0 °C 1010.0 hPa NW 20.9 km/h 33.8 km/h 82 % 0.0 mm 207 W/m2
17:45 16.1 °C 13.0 °C 1010.0 hPa WNW 6.4 km/h 30.6 km/h 82 % 0.0 mm 155 W/m2
17:55 15.9 °C 13.1 °C 1010.4 hPa NW 17.7 km/h 22.5 km/h 83 % 0.0 mm 93 W/m2
18:00 15.8 °C 12.9 °C 1010.4 hPa NW 6.4 km/h 25.7 km/h 83 % 0.0 mm 69 W/m2
18:05 15.8 °C 13.1 °C 1010.4 hPa West 3.2 km/h 25.7 km/h 84 % 0.0 mm 60 W/m2
18:10 15.8 °C 12.9 °C 1010.4 hPa NW 11.3 km/h 19.3 km/h 83 % 0.0 mm 77 W/m2
18:15 15.9 °C 13.0 °C 1010.4 hPa NW 4.8 km/h 19.3 km/h 83 % 0.0 mm 120 W/m2
18:20 16.1 °C 12.8 °C 1010.4 hPa WNW 8.0 km/h 22.5 km/h 81 % 0.0 mm 135 W/m2
18:25 16.2 °C 12.7 °C 1010.4 hPa NNW 6.4 km/h 22.5 km/h 80 % 0.0 mm 144 W/m2
18:30 16.3 °C 12.7 °C 1010.4 hPa WNW 12.9 km/h 19.3 km/h 79 % 0.0 mm 148 W/m2
18:40 16.4 °C 12.9 °C 1010.4 hPa NW 20.9 km/h 30.6 km/h 80 % 0.0 mm 90 W/m2
18:45 16.2 °C 12.8 °C 1010.7 hPa West 11.3 km/h 30.6 km/h 80 % 0.0 mm 53 W/m2
18:50 16.1 °C 12.6 °C 1010.7 hPa WNW 12.9 km/h 27.4 km/h 80 % 0.0 mm 37 W/m2
18:55 15.8 °C 12.6 °C 1010.7 hPa West 3.2 km/h 29.0 km/h 81 % 0.0 mm 40 W/m2
19:00 15.6 °C 12.7 °C 1010.7 hPa WNW 17.7 km/h 29.0 km/h 83 % 0.0 mm 56 W/m2
19:05 15.5 °C 12.8 °C 1010.7 hPa WNW 12.9 km/h 22.5 km/h 84 % 0.0 mm 67 W/m2
19:10 15.7 °C 12.8 °C 1010.7 hPa WNW 9.7 km/h 20.9 km/h 83 % 0.0 mm 91 W/m2
19:15 15.9 °C 13.0 °C 1010.7 hPa NW 9.7 km/h 20.9 km/h 83 % 0.0 mm 74 W/m2
19:25 15.8 °C 12.9 °C 1011.1 hPa WNW 12.9 km/h 25.7 km/h 83 % 0.0 mm 37 W/m2
19:30 15.6 °C 12.7 °C 1011.1 hPa WNW 11.3 km/h 25.7 km/h 83 % 0.0 mm 51 W/m2
19:35 15.6 °C 12.7 °C 1011.1 hPa NW 4.8 km/h 27.4 km/h 83 % 0.0 mm 39 W/m2
19:40 15.4 °C 12.9 °C 1011.4 hPa NNW 16.1 km/h 27.4 km/h 85 % 0.0 mm 35 W/m2
19:45 14.8 °C 12.6 °C 1011.4 hPa West 8.0 km/h 24.1 km/h 87 % 0.0 mm 39 W/m2
19:50 14.3 °C 12.5 °C 1011.4 hPa NNW 4.8 km/h 24.1 km/h 89 % 0.0 mm 58 W/m2
19:55 14.3 °C 12.9 °C 1011.4 hPa WNW 4.8 km/h 20.9 km/h 91 % 0.0 mm 51 W/m2
20:00 14.4 °C 12.9 °C 1011.4 hPa NNW 6.4 km/h 17.7 km/h 91 % 0.0 mm 60 W/m2
20:10 14.6 °C 13.1 °C 1011.7 hPa Calm   17.7 km/h 91 % 0.0 mm 60 W/m2
20:15 14.6 °C 13.1 °C 1011.7 hPa West 6.4 km/h 19.3 km/h 91 % 0.3 mm 53 W/m2
20:20 14.6 °C 12.9 °C 1011.7 hPa NW 8.0 km/h 19.3 km/h 90 % 0.3 mm 46 W/m2
20:25 14.6 °C 12.9 °C 1011.7 hPa NW 6.4 km/h 19.3 km/h 90 % 0.3 mm 33 W/m2
20:30 14.5 °C 12.9 °C 1012.1 hPa West 6.4 km/h 19.3 km/h 90 % 0.3 mm 28 W/m2
20:35 14.6 °C 12.9 °C 1012.1 hPa NNW 14.5 km/h 19.3 km/h 90 % 0.3 mm 23 W/m2
20:40 14.6 °C 12.9 °C 1012.1 hPa WNW 11.3 km/h 17.7 km/h 90 % 0.3 mm 23 W/m2
20:45 14.6 °C 13.0 °C 1012.1 hPa West 4.8 km/h 20.9 km/h 90 % 0.3 mm 18 W/m2
20:55 14.6 °C 13.0 °C 1012.1 hPa NNE 11.3 km/h 19.3 km/h 90 % 0.3 mm 18 W/m2
21:00 14.6 °C 12.9 °C 1012.1 hPa WNW 8.0 km/h 17.7 km/h 90 % 0.3 mm 23 W/m2
21:05 14.6 °C 12.9 °C 1012.4 hPa NNW 8.0 km/h 19.3 km/h 90 % 0.3 mm 32 W/m2
21:10 14.6 °C 12.9 °C 1012.4 hPa WNW 3.2 km/h 19.3 km/h 90 % 0.3 mm 33 W/m2
21:15 14.7 °C 13.0 °C 1012.4 hPa Calm   12.9 km/h 90 % 0.0 mm 28 W/m2
21:20 14.7 °C 13.1 °C 1012.4 hPa NW 6.4 km/h 16.1 km/h 90 % 0.0 mm 25 W/m2
21:25 14.7 °C 12.9 °C 1012.4 hPa NNW 4.8 km/h 17.7 km/h 89 % 0.0 mm 39 W/m2
21:30 14.8 °C 12.9 °C 1012.8 hPa West 9.7 km/h 20.9 km/h 88 % 0.0 mm 44 W/m2
21:35 14.9 °C 13.0 °C 1012.8 hPa WNW 6.4 km/h 20.9 km/h 88 % 0.0 mm 42 W/m2
21:40 15.0 °C 12.9 °C 1012.8 hPa WNW 6.4 km/h 16.1 km/h 87 % 0.0 mm 26 W/m2
21:45 15.1 °C 12.9 °C 1012.8 hPa West 6.4 km/h 19.3 km/h 87 % 0.0 mm 18 W/m2
21:50 15.0 °C 12.7 °C 1012.8 hPa WNW 6.4 km/h 22.5 km/h 86 % 0.0 mm 5 W/m2
21:55 15.0 °C 12.7 °C 1012.8 hPa West 9.7 km/h 22.5 km/h 86 % 0.0 mm 0 W/m2
22:00 15.0 °C 12.7 °C 1013.1 hPa WNW 11.3 km/h 20.9 km/h 86 % 0.0 mm 0 W/m2
22:05 14.9 °C 12.6 °C 1013.1 hPa NNW 11.3 km/h 19.3 km/h 86 % 0.0 mm 0 W/m2
22:10 15.0 °C 12.5 °C 1013.1 hPa NNW 11.3 km/h 25.7 km/h 85 % 0.0 mm 0 W/m2
22:15 15.0 °C 12.5 °C 1013.1 hPa NNW 3.2 km/h 25.7 km/h 85 % 0.0 mm 0 W/m2
22:25 14.9 °C 12.4 °C 1013.4 hPa WNW 12.9 km/h 25.7 km/h 85 % 0.0 mm 0 W/m2
22:30 14.9 °C 12.6 °C 1013.4 hPa NW 12.9 km/h 25.7 km/h 86 % 0.0 mm 0 W/m2
22:35 14.9 °C 12.4 °C 1013.4 hPa West 11.3 km/h 20.9 km/h 85 % 0.0 mm 0 W/m2
22:40 14.9 °C 12.4 °C 1013.4 hPa WNW 6.4 km/h 24.1 km/h 85 % 0.0 mm 0 W/m2
22:45 15.0 °C 12.5 °C 1013.8 hPa WNW 4.8 km/h 24.1 km/h 85 % 0.0 mm 0 W/m2
22:50 14.9 °C 12.4 °C 1013.8 hPa NNW 9.7 km/h 24.1 km/h 85 % 0.0 mm 0 W/m2
22:55 15.0 °C 12.5 °C 1013.8 hPa NNW 16.1 km/h 24.1 km/h 85 % 0.0 mm 0 W/m2
23:00 15.0 °C 12.5 °C 1013.8 hPa NW 12.9 km/h 20.9 km/h 85 % 0.0 mm 0 W/m2
23:10 14.9 °C 12.4 °C 1014.1 hPa NNW 9.7 km/h 22.5 km/h 85 % 0.0 mm 0 W/m2
23:15 14.9 °C 12.6 °C 1014.1 hPa Calm   17.7 km/h 86 % 0.0 mm 0 W/m2
23:20 14.9 °C 12.6 °C 1014.1 hPa WNW 3.2 km/h 16.1 km/h 86 % 0.0 mm 0 W/m2
23:25 14.8 °C 12.5 °C 1014.1 hPa NW 9.7 km/h 20.9 km/h 86 % 0.0 mm 0 W/m2
23:30 14.7 °C 12.6 °C 1014.1 hPa North 9.7 km/h 20.9 km/h 87 % 0.0 mm 0 W/m2
23:35 14.7 °C 12.5 °C 1014.1 hPa NW 9.7 km/h 17.7 km/h 87 % 0.0 mm 0 W/m2
23:40 14.6 °C 12.5 °C 1014.1 hPa WNW 6.4 km/h 22.5 km/h 87 % 0.0 mm 0 W/m2
23:45 14.6 °C 12.5 °C 1014.4 hPa West 4.8 km/h 22.5 km/h 87 % 0.0 mm 0 W/m2
23:55 14.6 °C 12.6 °C 1014.4 hPa NW 4.8 km/h 20.9 km/h 88 % 0.0 mm 0 W/m2
Avec l'autorisation de Weather Underground - 1.5 mb